Retour au catalogue

KUIPER-00260

ActifCommunicationsLEO
NORAD 67787·PAYLOAD·🇺🇸 United States

Lancé Feb 12, 2026 depuis Guiana Space Centre

Loading…

Prochains Passages (prochaines 24 heures)

TLE

FraisSource: CelesTrak SupGP

Époque: Sep 15, 2026, 02:58 UTC

1 67787C 26030Z   26258.12401620  .00002531  00000+0  33131-3 0  2587
2 67787  51.8997  78.0366 0000873 114.4181  56.7003 14.79921370    19

Suivez KUIPER-00260 en temps réel avec AllMySat

Download on the App Store